[[{"header":{"parameterUnit":"m.s-1","parameterCategory":1,"la1":30.2991,"la2":30.254,"lo1":-89.0895,"lo2":-89.0444,"dy":0.0017,"dx":0.0017,"nx":28,"ny":28,"refTime":"2024-05-01T09:00:00:Z","depth":0,"parameterNumber":2,"parameterNumberName":"U-component_of_WINDS"},"data":[0,0,0,0,0,0,0,0,0,0,0,0,0,0,0,0,0,0,0,0,0,0,0,0,0,0,0,0,0,0,0,0,0,0,0,0,0,0,0,0,0,0,0,0,0,0,0,0,0,0,0,0,0,0,0,0,0,0,-2.0862,-2.0861,0,-2.0774,-2.0773,-2.0772,-2.0671,-2.067,-2.0668,-2.0667,-2.0579,-2.0578,-2.0577,0,0,0,0,0,0,0,0,0,0,0,0,0,-2.0946,-2.0945,-2.0862,-2.0861,-2.086,-2.0774,-2.0773,-2.0772,-2.0672,-2.067,-2.0668,-2.0666,-2.0579,-2.0578,-2.0577,0,0,0,0,0,0,0,0,0,0,0,0,0,-2.0889,-2.0944,-2.0863,-2.08,-2.0793,-2.0775,-2.0773,-2.0772,-2.0672,-2.067,-2.0668,-2.0665,-2.0579,-2.0578,-2.0577,-2.0613,0,0,-2.0572,-2.0572,0,0,0,0,0,0,0,0,-2.0892,-2.0886,-2.081,-2.0804,-2.0797,-2.0731,-2.077,-2.0719,-2.0673,-2.0718,-2.0667,-2.0664,-2.0632,-2.0626,-2.0614,-2.0609,-2.0605,-2.0572,-2.0571,-2.0571,-2.057,0,0,0,0,0,0,0,-2.0896,-2.0889,-2.0827,-2.0809,-2.0801,-2.0777,-2.0766,-2.076,-2.0689,-2.0714,-2.0706,-2.0697,-2.0627,-2.0616,-2.0611,-2.0604,-2.0572,-2.0571,-2.057,-2.057,-2.0625,-2.0627,0,0,0,0,0,0,-2.0909,-2.0893,-2.083,-2.0825,-2.084,-2.0777,-2.0765,-2.0755,-2.0688,-2.0676,-2.0699,-2.0693,-2.0619,-2.0613,-2.0608,-2.0646,-2.0571,-2.0569,-2.0569,-2.0623,-2.0625,-2.0628,0,0,0,0,0,0,-2.0912,-2.0905,-2.0834,-2.0857,-2.0846,-2.0778,-2.0767,-2.0754,-2.0742,-2.0677,-2.0664,-2.07,-2.0617,-2.061,-2.0613,-2.0642,-2.0569,-2.0568,-2.062,-2.0624,-2.0627,-2.0724,0,0,0,0,0,0,-2.0914,-2.0906,-2.0919,-2.0858,-2.0845,-2.084,-2.0769,-2.0754,-2.074,-2.0731,-2.0675,-2.0663,-2.0615,-2.0615,-2.0611,-2.0639,-2.0566,-2.0617,-2.0622,-2.0626,-2.0718,-2.0731,-2.0741,0,0,0,0,0,-2.0918,-2.095,-2.092,-2.0913,-2.086,-2.0842,-2.0834,-2.0777,-2.0743,-2.0755,-2.0714,-2.0665,-2.064,-2.0616,-2.0611,-2.0639,-2.0615,-2.062,-2.0625,-2.0713,-2.0728,-2.0741,0,0,0,0,0,0,-2.1017,-2.0941,-2.0907,-2.092,-2.0888,-2.0825,-2.0839,-2.0795,-2.0773,-2.0765,-2.0696,-2.0684,-2.0695,-2.0667,-2.0643,-2.0671,-2.062,-2.0625,-2.0689,-2.0703,-2.0714,-2.0721,-2.0565,0,0,0,0,0,-2.1041,-2.1032,-2.0966,-2.0985,-2.097,-2.0908,-2.0898,-2.0856,-2.082,-2.0807,-2.0765,-2.0733,-2.0717,-2.0708,-2.069,-2.0714,-2.07,-2.073,-2.0742,-2.0751,-2.0756,-2.0767,-2.0779,-2.0645,-2.0645,-2.0645,0,0,-2.1089,-2.1047,-2.1045,-2.1003,-2.0974,-2.0967,-2.0897,-2.0892,-2.0887,-2.0806,-2.0806,-2.0774,-2.0734,-2.0747,-2.0751,-2.0724,-2.079,-2.0758,-2.0766,-2.0766,-2.0773,-2.0786,-2.0798,-2.0649,-2.0648,-2.0647,0,0,-2.1174,-2.1141,-2.1153,-2.1124,-2.1079,-2.1038,-2.1041,-2.0984,-2.0959,-2.0958,-2.0898,-2.089,-2.0865,-2.0838,-2.0822,-2.0897,-2.0852,-2.0893,-2.0954,-2.0965,-2.0976,-2.0985,-2.1012,-2.1022,-2.0898,-2.0898,-2.0898,0,-2.1241,-2.1227,-2.1164,-2.1164,-2.1147,-2.1073,-2.1085,-2.106,-2.1013,-2.1004,-2.0974,-2.0941,-2.0908,-2.0914,-2.0933,-2.0921,-2.0923,-2.0899,-2.0979,-2.0987,-2.0995,-2.102,-2.1031,-2.0903,-2.0903,-2.0902,-2.0902,0,-2.1311,-2.1302,-2.1317,-2.1272,-2.1258,-2.1263,-2.1202,-2.1195,-2.1155,-2.1117,-2.1117,-2.1075,-2.1048,-2.1046,-2.1007,-2.1047,-2.1032,-2.0992,-2.0939,-2.1014,-2.1037,-2.1046,-2.0911,-2.0909,-2.0908,-2.0906,0,0,-2.1456,-2.1376,-2.1383,-2.1362,-2.1307,-2.13,-2.1303,-2.1275,-2.127,-2.124,-2.1241,-2.1221,-2.1184,-2.1165,-2.1123,-2.1132,-2.1195,-2.1091,-2.1089,-2.1112,-2.1237,-2.1268,-2.128,-2.1165,-2.1166,-2.1168,-2.124,0,-2.1532,-2.1531,-2.1475,-2.149,-2.1481,-2.1411,-2.1413,-2.1381,-2.1345,-2.1333,-2.1294,-2.1281,-2.1232,-2.1221,-2.1227,-2.1186,-2.1219,-2.118,-2.1166,-2.1166,-2.1178,-2.1291,-2.1324,-2.1395,-2.1249,-2.125,-2.1251,0,-2.162,-2.1594,-2.1608,-2.1553,-2.1547,-2.155,-2.1521,-2.151,-2.1472,-2.1445,-2.1424,-2.1376,-2.1375,-2.1326,-2.1324,-2.1299,-2.129,-2.1269,-2.127,-2.1267,-2.1213,-2.1292,-2.1416,-2.1427,-2.1264,-2.1263,-2.1262,0,-2.1725,-2.1694,-2.1698,-2.1682,-2.1618,-2.1622,-2.1595,-2.1554,-2.1542,-2.1516,-2.1507,-2.1482,-2.1469,-2.1451,-2.1397,-2.1366,-2.1402,-2.1348,-2.1381,-2.1382,-2.1392,-2.1392,-2.1516,-2.1385,-2.1385,-2.1385,-2.1385,0,-2.1815,-2.1827,-2.1744,-2.1747,-2.1758,-2.1694,-2.1707,-2.1674,-2.1638,-2.1634,-2.1572,-2.1569,-2.1499,-2.1488,-2.1447,-2.1452,-2.1446,-2.1425,-2.1414,-2.1431,-2.1434,-2.1424,-2.1418,-2.1388,-2.1387,-2.1387,-2.1386,0,-2.1935,-2.188,-2.188,-2.1819,-2.1804,-2.1815,-2.1763,-2.1764,-2.1724,-2.1719,-2.1715,-2.1653,-2.1637,-2.1582,-2.1554,-2.1525,-2.1544,-2.1523,-2.1557,-2.155,-2.1586,-2.1584,-2.1709,-2.1722,-2.1583,-2.1584,-2.1586,0,-2.1997,-2.2004,-2.1943,-2.1935,-2.1912,-2.19,-2.1886,-2.1823,-2.1812,-2.1769,-2.1775,-2.1754,-2.1734,-2.1713,-2.1666,-2.1644,-2.1622,-2.1667,-2.1618,-2.1635,-2.1623,-2.1623,-2.1624,-2.1678,-2.168,-2.1681,-2.1683,0,-2.2112,-2.2084,-2.2066,-2.2039,-2.2025,-2.2001,-2.1973,-2.197,-2.19,-2.1891,-2.1874,-2.1858,-2.1829,-2.181,-2.178,-2.1753,-2.1707,-2.1698,-2.1705,-2.1722,-2.1743,-2.1733,-2.1587,-2.1696,-2.1695,-2.1694,-2.1693,-2.1692,-2.2205,-2.2208,-2.2166,-2.2148,-2.212,-2.2096,-2.2093,-2.2053,-2.2038,-2.2008,-2.1972,-2.196,-2.1921,-2.1876,-2.1853,-2.1843,-2.1818,-2.1827,-2.1829,-2.1833,-2.1841,-2.1744,-2.1838,-2.1837,-2.1837,-2.1836,-2.1836,0,-2.2317,-2.2286,-2.2271,-2.2233,-2.222,-2.2176,-2.2143,-2.2135,-2.2125,-2.2093,-2.2074,-2.2055,-2.2036,-2.1988,-2.1964,-2.1966,-2.1944,-2.1962,-2.1961,-2.1956,-2.1865,-2.1862,-2.198,-2.198,-2.198,-2.198,-2.198,-2.198,-2.2374,-2.2377,-2.2345,-2.2334,-2.2303,-2.229,-2.2275,-2.2252,-2.2226,-2.2207,-2.2191,-2.2159,-2.212,-2.2093,-2.2074,-2.2061,-2.2055,-2.208,-2.206,-2.1976,-2.1962,-2.1949,-2.1946,-2.2079,-2.208,-2.2151,-2.2152,-2.2152]},{"header":{"parameterUnit":"m.s-1","parameterCategory":1,"la1":30.2991,"la2":30.254,"lo1":-89.0895,"lo2":-89.0444,"dy":0.0017,"dx":0.0017,"nx":28,"ny":28,"refTime":"2024-05-01T09:00:00:Z","depth":0,"parameterNumber":3,"parameterNumberName":"V-component_of_WINDS"},"data":[0,0,0,0,0,0,0,0,0,0,0,0,0,0,0,0,0,0,0,0,0,0,0,0,0,0,0,0,0,0,0,0,0,0,0,0,0,0,0,0,0,0,0,0,0,0,0,0,0,0,0,0,0,0,0,0,0,0,1.5598,1.5596,0,1.5445,1.5443,1.5441,1.5359,1.5358,1.5358,1.5358,1.5196,1.5192,1.5188,0,0,0,0,0,0,0,0,0,0,0,0,0,1.5815,1.5812,1.5598,1.5596,1.5594,1.5445,1.5443,1.5441,1.5359,1.5358,1.5358,1.5358,1.5198,1.5193,1.5188,0,0,0,0,0,0,0,0,0,0,0,0,0,1.5697,1.5811,1.5598,1.5535,1.5528,1.5445,1.5443,1.544,1.5359,1.5358,1.5358,1.5358,1.5199,1.5193,1.5187,1.5154,0,0,1.5168,1.5165,0,0,0,0,0,0,0,0,1.5704,1.5689,1.5547,1.554,1.5531,1.5421,1.546,1.5344,1.5359,1.5423,1.5358,1.5358,1.5271,1.5259,1.523,1.5146,1.5139,1.5168,1.5164,1.5161,1.5159,0,0,0,0,0,0,0,1.5712,1.5695,1.5537,1.5545,1.5535,1.5513,1.5496,1.5438,1.535,1.5417,1.5411,1.5394,1.5267,1.5237,1.5226,1.5137,1.5168,1.5162,1.5158,1.5156,1.5017,1.5017,0,0,0,0,0,0,1.5731,1.5703,1.5542,1.5533,1.5619,1.551,1.5491,1.5456,1.535,1.5334,1.5395,1.5391,1.5247,1.5233,1.522,1.5173,1.5161,1.5155,1.5152,1.5017,1.5017,1.5017,0,0,0,0,0,0,1.5736,1.5718,1.5548,1.5616,1.5593,1.5506,1.5468,1.5453,1.5423,1.5333,1.5317,1.538,1.5247,1.5229,1.5171,1.5167,1.5153,1.5147,1.5017,1.5017,1.5017,1.508,0,0,0,0,0,0,1.5743,1.572,1.5707,1.5616,1.5589,1.5503,1.5468,1.5451,1.5413,1.5407,1.5316,1.53,1.5245,1.5181,1.5165,1.5158,1.5142,1.5017,1.5017,1.5017,1.5078,1.5083,1.5086,0,0,0,0,0,1.5751,1.573,1.5707,1.5688,1.5572,1.5503,1.5488,1.5426,1.5413,1.5399,1.5342,1.5303,1.517,1.5176,1.5157,1.5148,1.5017,1.5017,1.5017,1.5077,1.5082,1.5086,0,0,0,0,0,0,1.5821,1.5717,1.569,1.564,1.5581,1.549,1.547,1.5434,1.5376,1.5372,1.5297,1.5277,1.5227,1.5181,1.5189,1.511,1.5089,1.5086,1.5141,1.5145,1.5149,1.5161,1.5137,0,0,0,0,0,1.5831,1.5785,1.5696,1.566,1.5632,1.5557,1.5524,1.5482,1.5418,1.5392,1.533,1.5267,1.5211,1.5176,1.512,1.5072,1.505,1.5057,1.5061,1.5064,1.5062,1.5033,1.5034,1.5017,1.5017,1.5017,0,0,1.585,1.5788,1.5763,1.5673,1.5622,1.5575,1.5536,1.5488,1.5452,1.5384,1.5326,1.5279,1.5204,1.5151,1.5125,1.5112,1.5062,1.5065,1.5068,1.5063,1.5033,1.5035,1.5036,1.5018,1.5018,1.5018,0,0,1.5861,1.581,1.5774,1.5725,1.565,1.56,1.5592,1.5505,1.5472,1.5413,1.5361,1.5317,1.5222,1.5171,1.5133,1.5126,1.5088,1.511,1.513,1.5103,1.5104,1.5105,1.5102,1.5101,1.5108,1.5108,1.5108,0,1.5893,1.5822,1.576,1.5715,1.5676,1.5615,1.5578,1.5533,1.5442,1.5417,1.5404,1.5285,1.523,1.5165,1.5163,1.5135,1.5122,1.5119,1.5109,1.5109,1.5109,1.5105,1.5104,1.5111,1.5111,1.511,1.511,0,1.5866,1.5817,1.5797,1.5714,1.5673,1.5632,1.5562,1.5528,1.5491,1.5442,1.5382,1.5315,1.5244,1.5225,1.5187,1.5154,1.5149,1.5124,1.5102,1.5115,1.511,1.5108,1.5115,1.5114,1.5113,1.5113,0,0,1.5915,1.5799,1.5792,1.5754,1.5667,1.5628,1.5584,1.5516,1.5488,1.5428,1.5389,1.5311,1.5288,1.5245,1.52,1.5177,1.5175,1.5154,1.5151,1.5159,1.5133,1.5152,1.5151,1.515,1.5149,1.5149,1.5139,0,1.5912,1.5833,1.5776,1.5717,1.5671,1.5613,1.5574,1.5517,1.547,1.5423,1.537,1.5316,1.529,1.5264,1.5238,1.5181,1.5168,1.5181,1.5111,1.5109,1.513,1.5149,1.5167,1.5162,1.5137,1.5137,1.5136,0,1.5898,1.5843,1.578,1.5699,1.5678,1.5645,1.5578,1.5534,1.5467,1.5435,1.5388,1.5342,1.5292,1.5276,1.5206,1.5215,1.5184,1.5151,1.515,1.5139,1.5123,1.5138,1.5158,1.5157,1.5133,1.5133,1.5133,0,1.594,1.5849,1.5799,1.5768,1.5673,1.5651,1.561,1.5543,1.5506,1.5447,1.5422,1.5359,1.5323,1.5274,1.5213,1.5207,1.5148,1.5127,1.5118,1.512,1.5107,1.5109,1.5122,1.509,1.509,1.509,1.509,0,1.5942,1.5906,1.5817,1.5786,1.5744,1.5679,1.5638,1.5592,1.5533,1.5491,1.5437,1.5399,1.5321,1.5273,1.5224,1.5173,1.5157,1.5129,1.5116,1.5133,1.5136,1.511,1.5108,1.5089,1.5089,1.5089,1.5089,0,1.598,1.5919,1.5862,1.5777,1.5755,1.5727,1.5653,1.5621,1.5572,1.552,1.5504,1.5427,1.5368,1.5302,1.5221,1.5188,1.5139,1.5122,1.5163,1.5155,1.515,1.5151,1.5146,1.5141,1.5114,1.5114,1.5114,0,1.5985,1.5956,1.5869,1.5838,1.5799,1.575,1.5713,1.5648,1.5611,1.5533,1.551,1.5447,1.5393,1.5302,1.5237,1.5175,1.5154,1.5157,1.5144,1.5162,1.5153,1.5155,1.5151,1.516,1.5161,1.5161,1.5161,0,1.6001,1.5972,1.5921,1.586,1.5818,1.5766,1.5712,1.5689,1.5613,1.5574,1.5514,1.5473,1.5391,1.5329,1.5259,1.5214,1.5175,1.5166,1.5161,1.5177,1.5202,1.5187,1.5171,1.5166,1.5166,1.5165,1.5165,1.5165,1.6021,1.5993,1.5927,1.5873,1.5826,1.5777,1.5742,1.569,1.5639,1.5568,1.5533,1.5473,1.5406,1.5308,1.5266,1.5217,1.5204,1.5197,1.5194,1.5193,1.5197,1.5211,1.5204,1.5204,1.5203,1.5203,1.5203,0,1.6033,1.5988,1.5939,1.5866,1.5823,1.5792,1.573,1.5696,1.5645,1.5587,1.5536,1.5467,1.5406,1.5338,1.5273,1.5248,1.5228,1.5233,1.5233,1.5223,1.5213,1.5224,1.525,1.525,1.525,1.525,1.525,1.525,1.6034,1.5984,1.5948,1.5875,1.5829,1.5772,1.574,1.5694,1.5647,1.5573,1.5524,1.5481,1.5418,1.5348,1.5292,1.5273,1.5251,1.5261,1.5237,1.5228,1.5224,1.522,1.523,1.5257,1.5257,1.5251,1.5251,1.5251]}]]